User: anonymous   Login
Location: Theydon Bois
(51.6750°N, 0.1050°E)
Time: 09:07:14
(UTC+01:00)
Language:

COSMOS 2428 - Orbit

View from above orbital plane
View from above orbital plane
View from above satellite
View from above satellite

Ground track
Ground track

The orbit data is extracted from the following two-line orbital elements,

1 31792U 07029A   18197.75140684  .00000158  00000-0  11106-3 0  9997
2 31792  70.9676 304.5850 0005489  29.9715 330.1719 14.12550858569781
Epoch (UTC): 16 July 2018 18:02:01
Eccentricity: 0.0005489
inclination: 70.9676°
perigee height: 846 km
apogee height: 854 km
right ascension of ascending node: 304.5850°
argument of perigee: 29.9715°
revolutions per day: 14.12550858
mean anomaly at epoch: 330.1719°
orbit number at epoch: 56978

The dashed part of the orbit path shows where the satellite is in the earth's shadow,  

DLR